Location: Adelaide
(34.9285°S, 138.6007°E)
Time: 00:50:58
(UTC+10:30)

Envisat - Pass Details

Date: 18 November 2019
Orbit: 764 x 766 km, 98.1° (Epoch: 07 December)

Event Time Altitude Azimuth Distance (km) Brightness Sun altitude
Rises 21:18:43 0° 187° (S) 3,268 7.0 -14.5°
Reaches altitude 10° 21:21:46 10° 206° (SSW) 2,333 6.5 -15.0°
Maximum altitude 21:25:02 17° 246° (WSW) 1,870 6.1 -15.5°
Drops below altitude 10° 21:28:16 10° 285° (WNW) 2,315 6.0 -16.0°
Sets 21:31:18 0° 305° (NW) 3,232 6.5 -16.5°
